This is the latest recevied weather packets stored in our database for station/object KI7JYE. If no packets are shown the sender has not sent any weather packets the latest 10 day(s).
| Time | Temp. | Humidity | Pressure | Rain* | Wind** | Luminosity | Snow |
|---|---|---|---|---|---|---|---|
| 1777557525 | 8.89° C | 92% | 1017.5 hPa | 0 mm | - | 35 W/m² | - |
| 1777557221 | 8.33° C | 93% | 1017.6 hPa | 0 mm | - | 32 W/m² | - |
| 1777556917 | 8.33° C | 93% | 1017.6 hPa | 0 mm | - | 28 W/m² | - |
| 1777556612 | 8.33° C | 93% | 1017.8 hPa | 0 mm | - | 25 W/m² | - |
| 1777556307 | 8.33° C | 94% | 1017.9 hPa | 0 mm | - | 20 W/m² | - |
| 1777556004 | 8.33° C | 93% | 1017.9 hPa | 0 mm | - | 19 W/m² | - |
| 1777555698 | 8.33° C | 94% | 1017.9 hPa | 0 mm | - | 15 W/m² | - |
| 1777555395 | 7.78° C | 94% | 1017.8 hPa | 0 mm | - | 12 W/m² | - |
| 1777555091 | 7.78° C | 93% | 1017.6 hPa | 0 mm | - | 10 W/m² | - |
| 1777554789 | 7.78° C | 93% | 1017.5 hPa | 0 mm | - | 6 W/m² | - |
| 1777554486 | 8.33° C | 93% | 1018 hPa | 0 mm | - | 3 W/m² | - |
| 1777554183 | 8.33° C | 93% | 1017.8 hPa | 0 mm | - | 3 W/m² | - |
| 1777553879 | 7.78° C | 92% | 1017.9 hPa | 0 mm | - | 1 W/m² | - |
| 1777553575 | 8.33° C | 92% | 1017.7 hPa | 0 mm | - | 0 W/m² | - |
| 1777553271 | 8.33° C | 91% | 1017.7 hPa | 0 mm | - | 0 W/m² | - |
| 1777552968 | 8.89° C | 90% | 1017.7 hPa | 0 mm | - | 0 W/m² | - |
| 1777552662 | 8.89° C | 88% | 1017.5 hPa | 0 mm | - | 0 W/m² | - |
| 1777552360 | 9.44° C | 88% | 1017.7 hPa | 0 mm | - | 0 W/m² | - |
| 1777552056 | 9.44° C | 86% | 1017.7 hPa | 0 mm | - | 0 W/m² | - |
| 1777551753 | 10° C | 84% | 1017.5 hPa | 0 mm | - | 0 W/m² | - |
| 1777551450 | 10.56° C | 81% | 1017.7 hPa | 0 mm | - | 0 W/m² | - |
| 1777551147 | 10.56° C | 82% | 1017.6 hPa | 0 mm | - | 0 W/m² | - |
| 1777550845 | 10.56° C | 83% | 1017.7 hPa | 0 mm | - | 0 W/m² | - |
| 1777550541 | 10.56° C | 82% | 1017.6 hPa | 0 mm | - | 0 W/m² | - |
| 1777550237 | 11.67° C | 79% | 1017.5 hPa | 0 mm | - | 0 W/m² | - |
* Rain latest hour (hover to see other rain measurements)
** Current wind speed in m/s (hover to see current wind gust speed)